Big Bear Station Historical Data
Daily Summary for May 30, 2017 Units:  English    Metric   Both
« Previous Day
Next Day »
Daily Weekly Monthly Yearly Custom
  High: Low: Average:
Temperature: 79.9 °F 42.8 °F 60.3 °F
Dew Point: 46.6 °F 28.7 °F 37 °F
Humidity: 77 % 18 % 46 %
Wind Speed: 6.3 mph 0.0 mph 1.8 mph
Wind Gust: -999.0 mph - -
Wind:- - SW
Pressure: 30.17 in 30.11 in -
Precipitation: 0.00 in    
Historical Graphs
 
 
Tabular Data for May 30, 2017
Time Temperature Dew Point Pressure Wind Wind Speed Wind Gust Humidity Rainfall Rate (Hourly)
00:06 47.8 °F 31.5 °F 30.16 in Calm   -999.0 mph 53 % 0 in
00:21 47.5 °F 31.7 °F 30.16 in Calm   -999.0 mph 54 % 0 in
00:36 47.1 °F 31.8 °F 30.15 in Calm   -999.0 mph 55 % 0 in
00:52 46.6 °F 31.3 °F 30.15 in Calm   -999.0 mph 55 % 0 in
01:07 46.0 °F 30.7 °F 30.15 in Calm   -999.0 mph 55 % 0 in
01:22 45.9 °F 30.2 °F 30.15 in Calm   -999.0 mph 54 % 0 in
01:37 45.7 °F 29.5 °F 30.15 in Calm   -999.0 mph 53 % 0 in
01:52 45.3 °F 28.7 °F 30.15 in Calm   -999.0 mph 52 % 0 in
02:08 45.0 °F 31.1 °F 30.15 in Calm   -999.0 mph 58 % 0 in
02:23 44.8 °F 31.3 °F 30.14 in Calm   -999.0 mph 59 % 0 in
02:38 44.4 °F 32.6 °F 30.15 in Calm   -999.0 mph 63 % 0 in
02:54 44.4 °F 33.4 °F 30.15 in Calm   -999.0 mph 65 % 0 in
03:09 44.1 °F 34.2 °F 30.14 in Calm   -999.0 mph 68 % 0 in
03:24 43.9 °F 32.5 °F 30.14 in Calm   -999.0 mph 64 % 0 in
03:39 43.9 °F 32.9 °F 30.14 in Calm   -999.0 mph 65 % 0 in
03:55 43.7 °F 33.5 °F 30.14 in South 1.7 mph -999.0 mph 67 % 0 in
04:10 43.2 °F 33.4 °F 30.14 in Calm   -999.0 mph 68 % 0 in
04:25 43.0 °F 33.5 °F 30.14 in Calm   -999.0 mph 69 % 0 in
04:40 42.8 °F 33.3 °F 30.14 in Calm   -999.0 mph 69 % 0 in
04:55 43.0 °F 33.9 °F 30.14 in Calm   -999.0 mph 70 % 0 in
05:11 43.2 °F 33.7 °F 30.14 in Calm   -999.0 mph 69 % 0 in
05:26 43.0 °F 34.9 °F 30.14 in Calm   -999.0 mph 73 % 0 in
05:41 43.0 °F 36.0 °F 30.14 in Calm   -999.0 mph 76 % 0 in
05:56 43.2 °F 36.5 °F 30.15 in Calm   -999.0 mph 77 % 0 in
06:12 43.2 °F 36.5 °F 30.15 in Calm   -999.0 mph 77 % 0 in
06:27 43.7 °F 36.6 °F 30.15 in Calm   -999.0 mph 76 % 0 in
06:42 44.1 °F 37.0 °F 30.15 in Calm   -999.0 mph 76 % 0 in
06:57 44.8 °F 37.7 °F 30.16 in Calm   -999.0 mph 76 % 0 in
07:12 45.3 °F 37.8 °F 30.16 in Calm   -999.0 mph 75 % 0 in
07:28 46.2 °F 39.1 °F 30.16 in Calm   -999.0 mph 76 % 0 in
07:43 48.2 °F 38.5 °F 30.16 in Calm   -999.0 mph 69 % 0 in
07:58 50.2 °F 39.3 °F 30.16 in NNW 1.7 mph -999.0 mph 66 % 0 in
08:13 52.2 °F 37.9 °F 30.16 in Calm   -999.0 mph 58 % 0 in
08:28 54.7 °F 39.3 °F 30.16 in Calm   -999.0 mph 56 % 0 in
08:44 57.0 °F 38.5 °F 30.17 in NNW 1.1 mph -999.0 mph 50 % 0 in
08:59 59.5 °F 35.2 °F 30.17 in Calm   -999.0 mph 40 % 0 in
09:14 62.1 °F 41.6 °F 30.17 in Calm   -999.0 mph 47 % 0 in
09:29 63.0 °F 41.3 °F 30.17 in Calm   -999.0 mph 45 % 0 in
09:44 64.2 °F 36.0 °F 30.17 in ENE 1.7 mph -999.0 mph 35 % 0 in
10:00 67.3 °F 33.1 °F 30.17 in NW 4.2 mph -999.0 mph 28 % 0 in
10:15 69.1 °F 32.8 °F 30.17 in NW 3.2 mph -999.0 mph 26 % 0 in
10:31 69.8 °F 29.2 °F 30.17 in NW 3.7 mph -999.0 mph 22 % 0 in
10:46 71.1 °F 31.4 °F 30.17 in SSE 2.7 mph -999.0 mph 23 % 0 in
11:01 70.2 °F 35.6 °F 30.17 in NW 3.7 mph -999.0 mph 28 % 0 in
11:16 69.8 °F 34.3 °F 30.17 in NW 1.1 mph -999.0 mph 27 % 0 in
11:32 73.2 °F 35.3 °F 30.17 in NW 3.2 mph -999.0 mph 25 % 0 in
11:47 74.5 °F 35.3 °F 30.17 in NNW 4.2 mph -999.0 mph 24 % 0 in
12:02 74.3 °F 38.2 °F 30.17 in NNE 4.7 mph -999.0 mph 27 % 0 in
12:17 75.6 °F 34.1 °F 30.17 in WNW 2.2 mph -999.0 mph 22 % 0 in
12:33 76.1 °F 37.7 °F 30.17 in WNW 6.3 mph -999.0 mph 25 % 0 in
12:48 76.1 °F 34.5 °F 30.17 in NNW 4.7 mph -999.0 mph 22 % 0 in
13:03 78.1 °F 36.2 °F 30.17 in NW 4.7 mph -999.0 mph 22 % 0 in
13:19 76.6 °F 41.1 °F 30.16 in NW 6.3 mph -999.0 mph 28 % 0 in
13:34 77.2 °F 36.5 °F 30.16 in NW 2.7 mph -999.0 mph 23 % 0 in
13:49 77.4 °F 30.6 °F 30.16 in SW 2.7 mph -999.0 mph 18 % 0 in
14:05 78.4 °F 34.0 °F 30.15 in NE 2.2 mph -999.0 mph 20 % 0 in
14:20 77.5 °F 33.3 °F 30.15 in NW 3.2 mph -999.0 mph 20 % 0 in
14:35 79.0 °F 39.1 °F 30.15 in NW 2.7 mph -999.0 mph 24 % 0 in
14:50 79.9 °F 37.7 °F 30.14 in South 3.2 mph -999.0 mph 22 % 0 in
15:06 78.4 °F 38.6 °F 30.14 in NW 6.3 mph -999.0 mph 24 % 0 in
15:21 77.9 °F 40.3 °F 30.14 in South 5.3 mph -999.0 mph 26 % 0 in
15:36 74.8 °F 38.6 °F 30.14 in SSE 2.7 mph -999.0 mph 27 % 0 in
15:52 76.3 °F 39.9 °F 30.14 in SSW 2.7 mph -999.0 mph 27 % 0 in
16:07 75.7 °F 41.2 °F 30.13 in South 3.7 mph -999.0 mph 29 % 0 in
16:22 75.9 °F 41.4 °F 30.13 in SSW 2.7 mph -999.0 mph 29 % 0 in
16:38 78.4 °F 41.7 °F 30.13 in NW 6.3 mph -999.0 mph 27 % 0 in
16:53 79.5 °F 41.6 °F 30.13 in SE 4.7 mph -999.0 mph 26 % 0 in
17:08 77.9 °F 41.2 °F 30.12 in South 4.7 mph -999.0 mph 27 % 0 in
17:24 77.2 °F 41.6 °F 30.12 in NNW 5.3 mph -999.0 mph 28 % 0 in
17:39 76.3 °F 40.8 °F 30.12 in NNE 2.2 mph -999.0 mph 28 % 0 in
17:54 76.6 °F 44.5 °F 30.12 in WNW 4.2 mph -999.0 mph 32 % 0 in
18:09 76.3 °F 46.6 °F 30.12 in NW 4.7 mph -999.0 mph 35 % 0 in
18:25 72.5 °F 45.5 °F 30.12 in South 1.7 mph -999.0 mph 38 % 0 in
18:40 72.1 °F 45.8 °F 30.12 in WNW 4.7 mph -999.0 mph 39 % 0 in
18:56 69.6 °F 44.9 °F 30.11 in ESE 5.3 mph -999.0 mph 41 % 0 in
19:12 67.6 °F 45.5 °F 30.11 in NNW 2.2 mph -999.0 mph 45 % 0 in
19:27 64.6 °F 46.1 °F 30.11 in WNW 3.2 mph -999.0 mph 51 % 0 in
19:43 63.0 °F 45.1 °F 30.12 in West 2.2 mph -999.0 mph 52 % 0 in
19:58 61.7 °F 43.9 °F 30.12 in ENE 4.7 mph -999.0 mph 52 % 0 in
20:14 60.8 °F 42.6 °F 30.12 in East 4.7 mph -999.0 mph 51 % 0 in
20:29 60.4 °F 41.7 °F 30.12 in Calm   -999.0 mph 50 % 0 in
20:44 59.9 °F 40.2 °F 30.12 in SW 1.1 mph -999.0 mph 48 % 0 in
20:59 59.4 °F 39.2 °F 30.12 in Calm   -999.0 mph 47 % 0 in
21:14 58.5 °F 38.3 °F 30.12 in Calm   -999.0 mph 47 % 0 in
21:30 58.1 °F 38.0 °F 30.12 in Calm   -999.0 mph 47 % 0 in
21:45 57.4 °F 37.3 °F 30.12 in WNW 1.1 mph -999.0 mph 47 % 0 in
22:00 57.2 °F 36.6 °F 30.13 in Calm   -999.0 mph 46 % 0 in
22:15 56.8 °F 37.8 °F 30.13 in South 2.2 mph -999.0 mph 49 % 0 in
22:30 56.1 °F 37.2 °F 30.13 in South 1.1 mph -999.0 mph 49 % 0 in
22:46 55.4 °F 37.1 °F 30.13 in SSW 1.7 mph -999.0 mph 50 % 0 in
23:01 54.7 °F 36.4 °F 30.13 in Calm   -999.0 mph 50 % 0 in
23:16 53.4 °F 36.7 °F 30.13 in Calm   -999.0 mph 53 % 0 in
23:31 52.3 °F 36.1 °F 30.13 in South 2.2 mph -999.0 mph 54 % 0 in
23:46 51.6 °F 36.0 °F 30.13 in Calm   -999.0 mph 55 % 0 in
Big Bear CA Weather
Compliments of Weather Underground - 1.5 mb